Tracking 20942 objects as of 13-Jul-2020
HD Live streaming from Space Station
objects crossing your sky now

GOES 2

Track GOES 2 now!
GOES 2 is classified as:


NORAD ID: 10061
Int'l Code: 1977-048A
Perigee: 35,980.9 km
Apogee: 36,099.9 km
Inclination: 11.4 °
Period: 1,448.7 minutes
Semi major axis: 42411 km
RCS: 2.5118 m2 (large)
Launch date: June 16, 1977
Source: United States (US)
Launch site: AIR FORCE EASTERN TEST RANGE (AFETR)
aabbcc
Your satellite tracking list
Your tracking list is empty




NASA's NSSDC Master Catalog

Two Line Element Set (TLE):
1 10061U 77048A   20194.77523490 -.00000278  00000-0  00000+0 0  9994
2 10061  11.3589 314.8330 0014021   5.1430  12.1162  0.99398274101994
Source of the keplerian elements: AFSPC